Stations météo

réclame
Mon MeteoGroup
Castlederg, Grande-Bretagne (3904): Température de l'air & dewpoint: 19.09.2018 08:00:00 - 25.09.2018 08:00:00 (BST)Castlederg, Grande-Bretagne (3904): Température de l'air -20cm: 19.09.2018 08:00:00 - 25.09.2018 08:00:00 (BST)Castlederg, Grande-Bretagne (3904): Vitesse du vent & gusts: 19.09.2018 08:00:00 - 25.09.2018 08:00:00 (BST)Castlederg, Grande-Bretagne (3904): Direction du vent: 19.09.2018 08:00:00 - 25.09.2018 08:00:00 (BST)Castlederg, Grande-Bretagne (3904): reduced air pressure: 19.09.2018 08:00:00 - 25.09.2018 08:00:00 (BST)Castlederg, Grande-Bretagne (3904): visibility: 19.09.2018 08:00:00 - 25.09.2018 08:00:00 (BST)Castlederg, Grande-Bretagne (3904): Quantités de précipitations: 19.09.2018 08:00:00 - 25.09.2018 08:00:00 (BST)
Date & Time tt [°C] td [°C] tt -20cm [°C] ff [km/h] ff [knt] fx [km/h] fx [knt] dd ppp [hPa] vv [km] rr [mm]
25.09.2018 08:00:00 8,5 5,8 - 18 10 - - S 1030,2 50 0,0
25.09.2018 07:00:00 8,1 5,7 - 15 8 - - SSE 1031,0 50 0,0
25.09.2018 06:00:00 8,2 5,3 - 5 3 - - SE 1032,0 50 0,0
25.09.2018 05:00:00 8,4 5,6 - 4 2 - - SSW 1032,3 50 0,0
25.09.2018 04:00:00 8,3 5,4 - 15 8 - - SSE 1032,8 50 0,0
25.09.2018 03:00:00 5,9 5,1 - 5 3 - - E 1033,8 50 0,0
25.09.2018 02:00:00 5,4 4,8 - 2 1 - - NNW 1035,1 45 0,0
25.09.2018 01:00:00 5,4 5,0 - 2 1 - - ENE 1035,6 45 0,0
25.09.2018 00:00:00 4,5 3,6 - 2 1 - - ESE 1036,0 16 0,0
24.09.2018 23:00:00 5,3 4,3 - 2 1 - - SSE 1036,3 19 0,0
24.09.2018 22:00:00 6,6 5,1 - 4 2 - - E 1036,5 27 0,0
24.09.2018 21:00:00 7,7 5,5 - 4 2 - - SSE 1036,8 50 0,0
24.09.2018 20:00:00 8,6 5,7 - 2 1 - - E 1036,8 45 0,0
24.09.2018 19:00:00 10,1 5,6 - 8 4 - - SSW 1036,9 50 0,0
24.09.2018 18:00:00 13,2 6,2 - 13 7 - - WSW 1036,6 50 0,0
24.09.2018 17:00:00 13,5 6,3 - 22 12 - - SW 1036,9 50 0,0
24.09.2018 16:00:00 13,6 6,2 - 18 10 - - WSW 1037,4 35 0,0
24.09.2018 15:00:00 13,1 6,1 - 16 9 - - W 1037,8 45 0,0
24.09.2018 14:00:00 12,6 7,0 - 13 7 - - WSW 1038,2 45 0,0
24.09.2018 13:00:00 11,1 6,6 - 16 9 - - WSW 1038,2 50 0,0
24.09.2018 12:00:00 11,3 8,5 - 9 5 - - WSW 1038,3 50 0,0
24.09.2018 11:00:00 10,4 9,0 - 8 4 - - WSW 1038,4 45 0,0
24.09.2018 10:00:00 6,6 6,5 11,7 4 2 - - ENE 1038,3 35 0,0
24.09.2018 09:00:00 3,3 3,1 - 0 0 - - N 1038,1 27 0,0
24.09.2018 08:00:00 1,2 0,9 - 2 1 - - WSW 1037,7 20 0,0
24.09.2018 07:00:00 1,6 1,1 - 5 3 - - NE 1037,2 29 0,0
24.09.2018 06:00:00 2,6 2,0 - 5 3 - - W 1036,9 45 0,0
24.09.2018 05:00:00 2,5 1,8 - 4 2 - - WNW 1036,9 35 0,0
24.09.2018 04:00:00 3,5 3,1 - 5 3 - - WNW 1036,6 45 0,0
24.09.2018 03:00:00 3,4 2,2 - 5 3 - - WNW 1036,7 35 0,0
24.09.2018 02:00:00 4,0 3,2 - 8 4 - - WNW 1036,4 45 0,0
24.09.2018 01:00:00 3,2 2,6 - 5 3 - - W 1036,1 40 0,0
24.09.2018 00:00:00 4,3 3,0 - 8 4 - - W 1035,4 40 0,0
23.09.2018 23:00:00 4,1 3,3 - 8 4 - - W 1034,7 21 0,0
23.09.2018 22:00:00 3,4 2,2 - 5 3 - - W 1033,9 14 0,0
23.09.2018 21:00:00 5,1 2,6 - 2 1 - - W 1033,2 25 0,0
23.09.2018 20:00:00 7,7 4,5 - 5 3 - - WNW 1032,3 13 0,0
23.09.2018 19:00:00 9,4 4,4 - 9 5 - - NW 1031,4 26 0,0
23.09.2018 18:00:00 10,4 4,8 - 11 6 - - WNW 1030,2 45 0,0
23.09.2018 17:00:00 10,9 5,4 - 13 7 - - NW 1029,4 30 0,2
23.09.2018 16:00:00 10,4 6,1 - 11 6 - - WNW 1028,5 35 0,4
23.09.2018 15:00:00 11,6 6,1 - 16 9 - - WNW 1027,7 30 0,2
23.09.2018 14:00:00 11,2 6,0 - 13 7 - - NW 1026,5 35 0,0
23.09.2018 13:00:00 10,1 7,1 - 8 4 - - WNW 1025,6 35 0,0
23.09.2018 12:00:00 9,8 6,3 - 13 7 - - WNW 1024,7 40 0,2
23.09.2018 11:00:00 8,4 6,4 - 8 4 - - WNW 1023,6 50 0,6
23.09.2018 10:00:00 8,4 5,5 12,4 9 5 - - W 1022,6 50 0,0
23.09.2018 09:00:00 7,5 4,7 - 11 6 - - W 1021,8 14 0,2
23.09.2018 08:00:00 4,6 4,1 - 9 5 - - W 1021,2 50 0,0
23.09.2018 07:00:00 2,5 2,0 - 8 4 - - WNW 1020,5 50 0,0
23.09.2018 06:00:00 2,1 1,4 - 4 2 - - W 1019,8 40 0,0
23.09.2018 05:00:00 3,0 2,4 - 8 4 - - WNW 1019,6 50 0,0
23.09.2018 04:00:00 3,5 2,9 - 5 3 - - WNW 1019,4 50 0,0
23.09.2018 03:00:00 3,4 2,8 - 4 2 - - WNW 1019,4 45 0,0
23.09.2018 02:00:00 2,8 2,1 - 2 1 - - NNW 1019,0 45 0,0
23.09.2018 01:00:00 3,2 2,7 - 4 2 - - WNW 1018,7 35 0,0
23.09.2018 00:00:00 2,5 1,9 - 4 2 - - W 1018,7 22 0,0
22.09.2018 23:00:00 2,9 2,2 - 4 2 - - W 1018,6 17 0,0
22.09.2018 22:00:00 3,5 2,4 - 5 3 - - W 1018,4 10 0,0
22.09.2018 21:00:00 5,5 3,8 - 2 1 - - W 1017,8 16 0,0
22.09.2018 20:00:00 7,6 4,0 - 2 1 - - S 1017,0 30 0,0
22.09.2018 19:00:00 10,5 4,8 - 5 3 - - NNW 1016,3 40 0,0
22.09.2018 18:00:00 11,6 5,2 - 8 4 - - N 1015,6 50 0,0
22.09.2018 17:00:00 12,4 5,1 - 4 2 - - NNE 1015,7 40 0,0
22.09.2018 16:00:00 13,0 5,8 - 8 4 - - NNE 1015,6 29 0,0
22.09.2018 15:00:00 12,2 4,7 - 5 3 - - NW 1015,7 30 0,0
22.09.2018 14:00:00 14,3 5,4 - 15 8 - - WSW 1015,4 45 0,0
22.09.2018 13:00:00 12,9 7,6 - 5 3 - - SW 1015,6 40 0,0
22.09.2018 12:00:00 12,0 7,9 - 4 2 - - WSW 1015,9 30 0,0
22.09.2018 11:00:00 9,3 7,2 - 2 1 - - SSE 1015,9 26 0,0
22.09.2018 10:00:00 7,9 6,5 12,7 2 1 - - WSW 1015,7 27 0,0
22.09.2018 09:00:00 6,7 5,3 - 4 2 - - WNW 1015,9 35 0,0
22.09.2018 08:00:00 6,4 5,2 - 5 3 - - WNW 1015,7 35 0,0
22.09.2018 07:00:00 5,7 4,9 - 4 2 - - WNW 1015,4 30 0,0
22.09.2018 06:00:00 6,3 5,1 - 4 2 - - WNW 1015,3 30 0,0
22.09.2018 05:00:00 5,6 4,9 - 4 2 - - W 1015,1 23 0,0
22.09.2018 04:00:00 6,1 5,3 - 9 5 - - W 1015,5 14 0,0
22.09.2018 03:00:00 5,9 4,9 - 5 3 - - W 1015,4 26 0,0
22.09.2018 02:00:00 7,0 5,4 - 9 5 - - WSW 1015,1 29 0,2
22.09.2018 01:00:00 7,5 4,7 - 11 6 - - WSW 1014,5 40 0,0
22.09.2018 00:00:00 7,4 4,4 - 11 6 - - W 1014,5 30 0,0
21.09.2018 23:00:00 7,5 4,3 - 9 5 - - W 1014,2 27 0,0
21.09.2018 22:00:00 7,4 4,0 - 13 7 - - WSW 1013,8 23 0,0
21.09.2018 21:00:00 7,5 5,4 - 11 6 - - WSW 1013,3 23 0,2
21.09.2018 20:00:00 7,5 5,3 - 11 6 - - SW 1012,4 25 0,0
21.09.2018 19:00:00 10,0 6,1 - 18 10 - - W 1011,4 19 0,0
21.09.2018 18:00:00 9,9 8,4 - 18 10 - - WSW 1010,7 35 0,6
21.09.2018 17:00:00 11,1 6,5 - 16 9 - - W 1009,7 35 0,0
21.09.2018 16:00:00 10,1 7,2 - 22 12 46 25 W 1009,0 23 0,4
21.09.2018 15:00:00 12,7 8,0 - 21 11 48 26 W 1008,1 35 0,0
21.09.2018 14:00:00 11,8 7,1 - 26 14 - - W 1006,9 30 0,0
21.09.2018 13:00:00 10,9 7,8 - 18 10 - - WNW 1005,3 35 0,8
21.09.2018 12:00:00 12,2 9,0 - 21 11 - - WNW 1003,5 35 0,2
21.09.2018 11:00:00 10,3 7,9 - 26 14 52 28 W 1001,8 11 0,2
21.09.2018 10:00:00 10,0 8,1 13,0 24 13 52 28 W 999,9 22 0,2
21.09.2018 09:00:00 9,4 8,5 - 21 11 46 25 W 998,0 30 0,6
21.09.2018 08:00:00 7,5 6,6 - 22 12 - - WSW 997,2 40 0,6
21.09.2018 07:00:00 7,1 6,2 - 28 15 52 28 SW 997,5 16 0,6
21.09.2018 06:00:00 6,0 5,1 - 11 6 - - WSW 997,8 45 0,2
21.09.2018 05:00:00 5,4 4,7 - 9 5 - - WSW 998,0 40 0,0
21.09.2018 04:00:00 4,7 4,2 - 4 2 - - W 998,3 40 0,0
21.09.2018 03:00:00 5,0 4,4 - 5 3 - - WSW 998,5 35 0,0
21.09.2018 02:00:00 5,3 4,4 - 0 0 - - N 998,1 50 0,0
21.09.2018 01:00:00 5,3 4,4 - 9 5 - - WSW 998,0 50 0,0
21.09.2018 00:00:00 6,6 5,8 - 5 3 - - W 997,9 45 0,2
20.09.2018 23:00:00 6,6 5,9 - 5 3 - - WSW 998,1 23 0,0
20.09.2018 22:00:00 6,6 5,6 - 2 1 - - NNW 998,0 40 0,0
20.09.2018 21:00:00 7,2 6,2 - 2 1 - - SE 998,8 25 0,0
20.09.2018 20:00:00 7,5 6,3 - 4 2 - - NE 999,2 22 0,8
20.09.2018 19:00:00 8,6 5,5 - 9 5 - - W 999,4 21 0,6
20.09.2018 18:00:00 10,7 7,5 - 2 1 - - SSW 999,8 28 0,0
20.09.2018 17:00:00 11,6 6,5 - 2 1 - - W 999,9 45 0,0
20.09.2018 16:00:00 12,1 6,3 - 5 3 - - S 1001,0 22 0,0
20.09.2018 15:00:00 12,0 7,0 - 8 4 - - SSW 1002,3 30 0,0
20.09.2018 14:00:00 12,4 8,4 - 5 3 - - SW 1003,3 26 0,0
20.09.2018 13:00:00 11,8 7,8 - 15 8 - - SSW 1003,7 30 0,0
20.09.2018 12:00:00 11,8 8,6 - 13 7 - - SSW 1004,3 35 0,0
20.09.2018 11:00:00 10,7 7,6 - 13 7 - - SW 1004,8 35 0,0
20.09.2018 10:00:00 9,8 7,4 13,4 5 3 - - S 1005,1 26 0,0
20.09.2018 09:00:00 7,8 5,7 - 11 6 - - E 1005,5 35 0,0
20.09.2018 08:00:00 7,0 5,5 - 18 10 - - SSW 1005,3 30 0,0
20.09.2018 07:00:00 6,5 5,0 - 15 8 - - SW 1005,2 35 0,0
20.09.2018 06:00:00 7,4 5,2 - 11 6 - - WSW 1005,3 45 0,0
20.09.2018 05:00:00 7,3 5,4 - 5 3 - - W 1005,4 35 0,0
20.09.2018 04:00:00 7,1 5,6 - 11 6 - - SW 1005,0 24 0,0
20.09.2018 03:00:00 7,5 5,9 - 9 5 - - SW 1004,7 23 0,0
20.09.2018 02:00:00 8,0 6,1 - 16 9 - - SW 1004,6 23 0,0
20.09.2018 01:00:00 8,6 6,4 - 26 14 - - SSW 1003,9 24 0,0
20.09.2018 00:00:00 8,6 6,3 - 28 15 - - SSW 1003,7 18 0,0
19.09.2018 23:00:00 8,8 6,1 - 28 15 50 27 SW 1003,1 19 0,0
19.09.2018 22:00:00 9,4 5,9 - 37 20 55 30 SW 1002,5 28 0,0
19.09.2018 21:00:00 8,9 5,4 - 28 15 52 28 SSW 1002,0 25 0,0
19.09.2018 20:00:00 9,6 5,6 - 29 16 48 26 SSW 1001,6 23 0,0
19.09.2018 19:00:00 9,8 5,0 - 29 16 57 31 SW 1001,3 24 0,0
19.09.2018 18:00:00 11,1 5,6 - 39 21 67 36 WSW 1000,7 22 0,0
19.09.2018 17:00:00 7,9 4,8 - 46 25 85 46 WSW 1001,1 5 0,6
19.09.2018 16:00:00 10,3 7,3 - 48 26 89 48 WSW 999,0 15 0,6
19.09.2018 15:00:00 11,2 5,8 - 57 31 83 45 WSW 997,7 11 0,0
19.09.2018 14:00:00 10,6 8,8 - 42 23 87 47 WSW 995,5 8 0,4
19.09.2018 13:00:00 11,3 9,4 - 55 30 94 51 WSW 992,2 17 0,6
19.09.2018 12:00:00 12,3 9,5 - 54 29 81 44 WSW 987,9 23 1,8
19.09.2018 11:00:00 11,2 9,3 - 54 29 102 55 SSW 984,3 3,9 0,2
19.09.2018 10:00:00 12,0 6,7 14,5 61 33 102 55 SSW 984,1 9 0,0
19.09.2018 09:00:00 13,0 11,8 - 37 20 76 41 SSW 984,4 16 7,4
19.09.2018 08:00:00 12,5 11,0 - 42 23 70 38 S 985,4 6 2,8

tt = Température de l'air
td = dewpoint
tt -20cm = Température de l'air -20cm
ff = Vitesse du vent
fx = gusts
dd = Direction du vent
ppp = reduced air pressure
vv = visibility
rr = Quantités de précipitations

stations d'obs. à proximité